Regional Weather Roundup
Issued by NWS

Home | Current Version | Previous Version | Text Only | Print | Product List | Glossary Off
Versions: 1 2 3 4 5 6 7 8 9 10 11 12 13 14 15 16 17 18 19 20 21 22 23 24 25 26 27 28 29 30 31 32 33 34 35 36 37 38 39 40 41 42 43 44 45 46 47 48 49 50

000
ASUS43 KTOP 210508
RWRKS

WEATHER ROUNDUP FOR KANSAS
NATIONAL WEATHER SERVICE GOODLAND KS
1100 PM CST SAT DEC 20 2014

NOTE:  "FAIR" INDICATES FEW OR NO CLOUDS BELOW 12,000 FEET WITH NO
SIGNIFICANT WEATHER AND/OR OBSTRUCTIONS TO VISIBILITY.

KSZ001>006-013>018-027>032-041>047-210600-
NORTHWEST KANSAS

CITY           SKY/WX    TMP DP  RH WIND       PRES   REMARKS
GOODLAND       MOCLDY    35  29  78 SW9       29.93S
HAYS           PTCLDY    34  27  75 CALM      30.00R
HILL CITY      PTCLDY    38  33  82 SW9       29.97S
RUSSELL        PTCLDY    36  35  96 S13       29.99S WCI  27
$$

KSZ061>065-074>080-084>089-210600-
SOUTHWEST KANSAS

CITY           SKY/WX    TMP DP  RH WIND       PRES   REMARKS
DODGE CITY     PTCLDY    32  30  92 S10       30.00S FOG     WCI  24
ELKHART          N/A    N/A N/A N/A MISG        N/A
GARDEN CITY    CLEAR     32  30  92 S10       29.96F WCI  24
GREAT BEND     PTCLDY    36  30  80 S12       30.02F WCI  27
LIBERAL        CLEAR     32  27  80 S7        30.00S
PRATT          CLEAR     36  34  93 S13       30.03F WCI  27
$$

KSZ066>073-081>083-090>101-210600-
SOUTHEAST KANSAS

CITY           SKY/WX    TMP DP  RH WIND       PRES   REMARKS
CHANUTE        MOCLDY    35  33  92 S8        30.15F
COFFEYVILLE    CLOUDY    42  36  79 S10       30.18S
HUTCHINSON     CLOUDY    42  36  79 S13       30.06S
MEDICINE LODGE   N/A     37  36  96 S8        30.05F
NEWTON         CLOUDY    41  34  75 SW17      30.08S
PARSONS        CLOUDY    39  36  89 SW6       30.18S
WICHITA INTL   CLOUDY    43  37  79 S12       30.08S
WICHITA JABRA  CLOUDY    42  37  82 S14       30.07F
WICHITA MCCONL CLOUDY    42  38  85 S13       30.08F
WINFIELD       CLOUDY    42  38  85 S9        30.12F
$$

KSZ007>012-019>026-033>040-048>060-102>105-210600-
NORTHEAST KANSAS

CITY           SKY/WX    TMP DP  RH WIND       PRES   REMARKS
CONCORDIA      PTCLDY    37  36  96 S16       30.00F WCI  28
EMPORIA        CLOUDY    34  33  96 S10       30.09S WCI  26
LAWRENCE       PTCLDY    36  32  85 S8        30.13S
MANHATTAN      PTCLDY    36  34  92 SW3       30.05F
MARYSVILLE     PTCLDY    37  36  93 S9        30.02F
OLATHE IND     PTCLDY    34  32  92 S8        30.13S
OLATHE EXE     PTCLDY    36  33  89 S8        30.12S
SALINA         MOCLDY    40  36  86 S13       30.04R WCI  32
TOPEKA BILLARD PTCLDY   N/A N/A N/A SE7       30.10F
TOPEKA FORBES  PTCLDY    38  33  82 S10       30.09S WCI  31
$$



USA.gov is the U.S. government's official web portal to all federal, state and local government web resources and services.